Flag for Switzerland Weather past 2 weeks in Montreux, Vaud, Switzerland

Now
60 °F

Refreshingly cool.


Feels Like: 59 °F
Forecast: 28 / 50 °F
Wind: 7 mph from Northwest

Location: Aigle


UV Index: 3 (Moderate)

Visibility: N/A


Pressure: 30.01 "Hg

Humidity: 40%

Dew point: 35 °F

Location of MontreuxLocation

Historic Weather in Montreux

°F

Montreux temperature yesterday

Maximum temperature yesterday: 60 °F (at 6:00 PM)
Minimum temperature yesterday: 33 °F (at 6:00 AM)
Average temperature yesterday: 45 °F

Past Weeks' High & Low Weather Summary

 TemperatureHumidityPressure
High69 °F (Apr 7, 5:00 PM)98% (Apr 5, 7:00 AM)30.32 "Hg (Apr 5, 7:00 AM)
Low33 °F (Apr 17, 6:00 AM)27% (Apr 15, 6:00 PM)29.62 "Hg (Apr 3, 6:00 PM)
Average55 °F65%30.03 "Hg
* Reported Apr 2 6:00 PM — Apr 17 6:00 PM, Montreux, Weather by CustomWeather, © 2014

Note: Actual official high and low records may vary slightly from our data, if they occured in-between our weather recording intervals... More about our weather records

Advertising

Historic Weather Conditions — Data for Previous 24 hours

 ConditionsComfort  
Time TempWeatherWind HumidityBarometerVisibility
6:00 PM
Apr 17
60 °FRefreshingly cool.7 mph40%30.01 "HgN/A
5:00 PM60 °FPassing clouds.5 mph42%30.02 "Hg22 mi
4:00 PM58 °FRefreshingly cool.8 mph45%30.04 "HgN/A
3:00 PM57 °FRefreshingly cool.7 mph42%30.06 "HgN/A
2:00 PM57 °FPassing clouds.8 mph45%30.09 "Hg22 mi
1:00 PM53 °FCool.12 mph50%30.13 "HgN/A
12:00 PM51 °FCool.7 mph51%30.16 "HgN/A
10:00 AM47 °FCool.7 mph65%30.20 "HgN/A
9:00 AM43 °FQuite cool.2 mph70%30.22 "HgN/A
8:00 AM36 °FScattered clouds.2 mph90%30.24 "Hg22 mi
7:00 AM35 °FChilly.No wind92%30.24 "HgN/A
6:00 AM33 °FChilly.1 mph95%30.25 "HgN/A
5:00 AM34 °FClear.1 mph94%30.25 "Hg22 mi
4:00 AM36 °FChilly.1 mph89%30.25 "HgN/A
3:00 AM38 °FChilly.No wind84%30.24 "HgN/A
2:00 AM39 °FChilly.1 mph81%30.25 "HgN/A
1:00 AM39 °FChilly.1 mph80%30.24 "HgN/A
12:00 AM43 °FQuite cool.2 mph67%30.23 "HgN/A
Weather by CustomWeather, © 2014

See weather overview